{"data":{"norad_id":67213,"epoch":"2026-05-24T23:03:32.122944Z","epoch_age_seconds":89090,"freshness":"FRESH","line1":"1 67213U 25304X   26144.96078846  .00003969  00000+0  34015-3 0  9990","line2":"2 67213  70.0021 341.9759 0002861 266.3230  93.7602 14.98339491 25317","mean_motion":14.98339491,"eccentricity":0.0002861,"inclination_deg":70.0021,"raan_deg":341.9759,"arg_perigee_deg":266.323,"mean_anomaly_deg":93.7602,"bstar":0.00034015,"rev_number":2531,"period_min":96.106390350757,"perigee_km":570.03809917569,"apogee_km":574.01498275383,"semimajor_km":6950.1635409648,"source":"CELESTRAK","updated_at":"2026-05-25T13:38:21.512701Z"}}